Location: Klickitat County Star Party
(45.8642°N, 120.6771°W)
Time: 10:00:44
(UTC-08:00)

CUTE-I - Visible Passes

Search period start: 12 November 2019 00:00
Search period end: 22 November 2019 00:00
Orbit: 811 x 824 km, 98.7° (Epoch: 11 November)

Date Brightness Start Highest point End Pass type
(mag) Time Alt. Az. Time Alt. Az. Time Alt. Az.
12 Nov ? 05:47:22 10° NNE 05:52:15 34° E 05:57:06 10° SSE visible
12 Nov ? 17:11:21 10° SSE 17:16:38 69° ENE 17:21:57 10° N visible
12 Nov ? 18:53:42 10° SW 18:57:11 17° W 19:00:41 10° NW visible
13 Nov ? 05:26:28 10° NE 05:30:39 23° E 05:34:49 10° SE visible
13 Nov ? 18:31:06 10° SSW 18:35:32 26° W 18:40:00 10° NW visible
14 Nov ? 05:06:00 10° NE 05:08:58 15° E 05:11:56 10° ESE visible
14 Nov ? 18:08:59 10° SSW 18:13:57 40° W 18:18:59 10° NNW visible
15 Nov ? 06:22:51 10° NNE 06:28:14 68° ESE 06:33:35 10° S visible
15 Nov ? 17:47:11 10° S 17:52:27 61° WSW 17:57:45 10° NNW visible
16 Nov ? 06:01:35 10° NNE 06:06:45 45° E 06:11:52 10° S visible
16 Nov ? 17:25:40 10° SSE 17:31:00 89° ENE 17:36:24 10° NNW visible
16 Nov ? 19:09:25 10° WSW 19:11:47 13° W 19:14:10 10° WNW visible
17 Nov ? 05:40:30 10° NE 05:45:12 30° E 05:49:51 10° SSE visible
17 Nov ? 17:04:24 10° SSE 17:09:38 60° ENE 17:14:55 10° N visible
17 Nov ? 18:46:13 10° SW 18:50:04 20° W 18:53:58 10° NW visible
18 Nov ? 05:19:42 10° NE 05:23:34 20° E 05:27:25 10° SE visible
18 Nov ? 18:23:49 10° SSW 18:28:27 30° W 18:33:10 10° NW visible
19 Nov ? 04:59:32 10° ENE 05:01:51 13° E 05:04:11 10° ESE visible
19 Nov ? 06:37:13 10° NNE 06:42:39 89° ESE 06:48:02 10° SSW visible
19 Nov ? 18:01:48 10° S 18:06:53 46° W 18:12:03 10° NNW visible
20 Nov ? 06:15:53 10° NNE 06:21:13 59° ESE 06:26:30 10° S visible
20 Nov ? 17:40:06 10° S 17:45:25 70° WSW 17:50:47 10° NNW visible
21 Nov ? 05:54:39 10° NNE 05:59:42 39° E 06:04:42 10° SSE visible
21 Nov ? 17:18:40 10° SSE 17:24:00 79° ENE 17:29:22 10° NNW visible
21 Nov ? 19:01:40 10° WSW 19:04:40 15° W 19:07:41 10° NW visible
